Theta_e
286 286 286 285 284 283 283 282 282 282 281 281 282 282 282 283 284 282 282 283 284 283 282 282 280 280 280 280 279 279 280 282 280 281 281 281 282 281 281 281 281 281 281 281 280 281 280 280 280 280 281 281 280 280 281 281 282 283 283 283 283 283 285 288 290 292 290 289 291 291 291 293 294 295 296 297 298 300 305 308 311 314 318 322 325
285 285 284 283 283 283 282 281 283 281 281 281 282 282 282 281 282 282 282 282 282 282 283 283 281 280 280 279 279 279 279 279 279 280 280 282 281 280 280 280 280 280 281 280 280 280 279 279 279 279 280 280 280 281 281 283 282 281 281 280 282 282 282 286 288 289 287 286 286 287 289 291 292 293 293 294 295 297 300 306 312 315 318 320 323
284 285 284 283 282 282 281 281 281 282 282 282 281 281 281 281 281 282 282 281 282 283 283 281 281 282 280 280 279 279 280 281 280 281 281 281 279 279 280 279 279 279 279 280 280 279 279 279 279 279 279 280 280 280 280 279 280 279 279 279 278 280 281 284 287 288 286 288 289 287 285 285 289 291 294 296 299 299 301 305 309 313 318 321 323
284 284 284 282 282 282 281 281 281 281 282 281 280 281 281 283 281 281 281 281 281 282 285 281 281 282 281 280 280 279 279 281 281 280 279 279 278 279 279 279 279 279 279 279 279 279 278 278 278 279 279 279 279 278 277 277 278 278 279 279 279 277 279 281 286 288 288 288 284 285 285 286 283 285 287 292 296 297 301 308 313 315 317 321 323
285 284 283 282 281 281 281 281 281 281 281 281 281 281 283 282 282 281 281 281 281 284 282 281 282 280 279 279 280 279 279 279 277 277 278 278 279 277 277 278 278 278 278 278 279 278 278 278 278 278 278 278 278 277 277 277 278 278 278 278 278 278 277 279 282 286 288 291 288 286 284 283 283 285 287 288 290 292 297 301 301 307 316 319 321
286 285 284 282 282 281 280 280 280 281 281 281 281 282 282 281 281 281 280 281 281 280 281 281 280 279 277 277 276 276 276 276 275 275 276 276 276 277 278 278 278 278 278 278 278 279 278 278 277 277 277 277 277 277 277 277 277 278 279 279 278 279 278 278 279 284 287 289 291 291 290 286 285 286 286 282 290 291 292 294 296 298 302 312 320
285 285 283 282 281 280 280 280 280 280 281 281 280 281 281 280 280 280 280 280 281 281 280 282 279 278 277 276 276 276 275 276 276 276 276 277 277 277 277 277 277 277 277 277 277 277 277 277 277 277 277 277 278 277 277 277 277 277 278 277 277 278 277 275 276 279 284 287 290 291 291 292 292 289 285 286 284 288 291 293 296 301 305 305 310
285 284 283 282 281 281 280 280 280 281 281 280 281 280 280 281 280 280 280 282 281 280 280 280 279 278 277 276 278 276 275 275 276 276 277 278 276 276 276 276 276 277 277 277 277 277 277 277 277 276 276 276 277 276 275 275 276 276 276 276 277 277 277 276 276 278 280 282 286 288 290 292 292 292 292 288 286 285 287 291 293 294 297 300 304
285 284 283 282 281 281 281 280 280 281 281 281 281 281 281 280 281 280 279 279 280 279 281 279 280 279 277 276 275 277 277 277 277 277 276 276 275 275 275 275 276 276 276 276 276 276 277 276 276 276 275 275 276 275 275 275 275 275 275 276 276 276 277 277 276 276 277 278 282 285 288 290 291 292 291 291 288 286 286 287 288 292 295 297 300
285 285 284 282 282 281 281 281 280 280 281 282 280 280 280 279 280 280 278 278 279 278 278 278 277 278 276 276 275 275 276 275 275 274 274 275 274 274 274 275 275 275 275 275 275 276 275 276 275 275 275 275 276 275 275 275 275 275 276 275 275 274 275 275 275 275 277 278 280 283 284 286 288 290 290 289 290 290 286 286 288 288 288 291 297
284 283 283 282 281 281 280 280 280 280 280 280 280 280 279 279 278 278 278 278 278 278 277 277 277 276 276 275 275 274 274 274 274 274 274 274 273 273 274 274 274 274 275 275 275 275 275 275 275 275 275 275 275 274 274 274 274 274 274 274 274 273 274 274 274 275 276 277 278 281 283 285 286 287 288 288 288 286 286 287 288 290 291 291 295
283 282 281 281 279 279 279 279 280 280 279 279 279 279 279 279 278 277 277 277 277 278 277 277 276 276 276 275 275 274 274 274 273 273 273 273 273 273 273 273 273 274 274 274 274 274 274 274 275 274 274 274 273 274 274 274 274 274 274 273 273 274 274 274 274 274 275 276 277 279 283 286 288 288 290 289 288 287 287 286 287 289 290 291 294
282 281 281 280 280 279 278 279 279 279 279 279 279 279 279 278 277 277 277 276 276 276 276 276 275 275 275 275 274 275 274 274 273 273 273 273 273 272 272 272 273 272 273 273 273 273 274 273 273 273 273 273 274 273 273 273 273 273 273 273 273 273 273 273 273 274 275 276 277 284 287 287 288 290 291 290 290 290 288 287 288 290 288 290 292
282 281 281 281 281 280 279 279 279 280 279 279 278 279 278 278 277 277 276 276 276 276 275 275 275 275 274 274 274 274 273 273 273 273 273 273 273 272 272 272 272 272 272 272 273 273 274 274 274 273 273 273 273 273 273 273 273 273 273 272 272 273 273 273 274 275 277 279 282 283 284 286 287 289 291 291 290 289 288 288 287 288 289 289 292
281 281 281 281 281 280 280 280 280 280 279 278 278 279 277 277 276 277 276 276 276 275 275 275 274 274 274 274 274 273 273 273 273 274 273 273 272 272 272 272 272 272 272 273 274 273 273 273 273 273 273 273 273 273 273 273 273 273 272 272 273 273 273 274 274 274 274 275 277 279 281 283 286 289 291 291 292 291 290 289 288 286 286 288 289
280 280 280 280 280 279 280 279 280 280 279 278 278 278 277 277 276 276 275 275 275 276 275 274 274 274 273 273 273 274 275 274 273 273 273 272 272 272 272 272 272 272 272 273 273 273 273 273 273 273 273 273 272 272 272 272 272 271 271 271 271 273 272 272 272 273 273 274 276 277 280 282 285 287 290 292 292 292 291 291 289 289 286 284 288
280 280 280 280 279 279 280 279 279 279 278 278 278 277 277 276 276 275 275 275 275 275 274 273 273 273 273 273 272 272 272 272 271 271 272 272 272 272 272 272 272 272 272 273 273 273 273 273 272 272 272 272 272 272 272 272 272 271 271 271 270 271 272 271 272 272 273 274 276 277 280 282 285 288 290 291 292 292 292 292 292 290 290 287 285
280 280 280 280 279 279 279 279 279 279 279 278 278 276 276 276 275 275 275 274 274 274 273 273 273 273 272 272 272 272 272 271 271 271 271 271 271 271 271 271 271 272 272 273 273 272 272 273 272 271 272 272 271 272 271 271 271 271 271 271 271 271 271 271 272 272 272 274 275 278 280 281 285 287 289 291 291 292 292 291 292 292 293 290 288
279 279 279 279 279 279 279 279 279 279 279 278 277 276 276 275 275 274 274 274 274 274 273 273 273 273 273 272 271 271 271 271 271 271 271 270 270 270 271 271 271 272 272 272 271 271 271 271 271 271 271 271 271 271 271 271 271 270 270 270 271 271 270 270 271 272 272 273 274 276 279 281 284 286 288 291 291 290 291 292 292 293 293 293 291
279 279 279 279 279 279 278 278 278 277 277 277 276 275 275 275 275 275 275 274 273 272 272 272 272 272 271 271 271 271 271 271 271 270 270 270 270 270 270 270 271 271 271 271 271 271 271 270 271 271 271 271 271 271 271 270 270 270 270 270 270 270 270 270 271 272 274 275 276 277 278 280 283 285 288 290 290 290 291 292 291 292 293 294 293
279 279 279 279 279 278 278 278 278 277 277 276 275 275 275 274 274 274 273 272 272 272 272 271 271 271 271 270 270 270 270 270 270 270 269 269 270 271 270 271 271 270 271 270 270 270 270 271 270 270 270 270 270 270 270 270 270 269 270 270 270 270 270 270 271 271 273 274 275 277 278 279 282 283 285 289 290 290 291 291 292 292 292 293 293
279 279 279 279 278 278 277 277 276 276 276 275 275 274 274 273 273 273 272 272 271 271 271 270 270 270 269 269 269 269 269 269 269 269 269 269 269 270 270 270 270 270 270 270 270 270 270 270 269 269 269 269 270 270 270 270 269 269 269 270 270 270 270 270 270 269 270 271 272 273 276 281 284 285 286 288 290 290 290 290 291 291 292 292 294
279 279 279 278 278 278 277 276 276 276 275 274 274 274 274 273 272 272 271 271 271 271 270 270 269 269 269 269 269 268 269 268 268 268 269 269 269 269 270 269 269 269 270 270 269 269 269 269 268 268 269 268 269 269 269 269 269 269 269 269 270 270 270 270 269 270 270 271 272 273 275 278 280 282 285 288 290 290 291 290 291 292 292 293 294
278 278 278 278 278 277 277 276 276 275 274 274 274 274 273 272 272 272 271 271 270 270 270 269 269 268 268 268 268 268 268 268 268 268 268 268 269 269 269 269 269 269 268 268 268 268 268 268 267 267 267 268 268 268 268 268 269 269 269 269 269 270 270 271 271 270 270 271 272 273 275 277 280 281 284 287 289 290 290 290 291 291 292 293 294
277 277 277 277 277 277 277 277 276 275 274 274 273 273 272 272 271 271 270 270 270 269 269 268 268 267 267 267 267 267 267 267 267 268 268 268 268 268 268 268 267 267 267 267 267 267 267 267 266 266 266 267 267 267 267 267 268 269 269 269 269 269 269 270 271 272 273 273 274 275 276 278 279 280 283 286 288 289 290 290 290 291 292 293 293
277 277 277 277 278 277 276 276 276 275 274 273 273 272 272 271 271 270 269 269 269 268 268 267 267 266 266 266 266 266 267 267 267 267 267 267 268 267 267 267 266 266 266 266 266 266 266 266 266 266 266 266 266 267 267 267 267 268 269 269 269 269 269 270 270 270 270 271 271 271 274 276 278 279 281 284 288 288 289 289 289 290 291 292 292
277 277 278 277 276 276 276 275 275 274 273 273 272 271 270 270 270 269 269 268 268 267 267 266 266 266 266 266 266 266 266 266 266 267 267 267 266 266 265 265 265 265 265 264 265 265 265 266 265 266 266 266 266 266 266 267 267 268 268 268 269 269 269 270 270 271 271 271 271 272 272 274 276 278 280 282 286 287 288 288 289 289 290 291 291
277 277 277 277 277 276 275 274 274 273 272 272 271 270 270 269 268 268 268 267 267 267 266 265 265 265 265 265 266 266 266 266 266 266 266 265 265 265 265 264 264 264 264 264 264 264 265 265 265 265 266 266 266 266 266 267 267 268 268 268 269 269 269 269 270 270 270 271 272 272 273 274 275 278 281 282 285 287 288 288 289 290 290 290 290
276 277 277 277 276 276 275 273 273 272 271 270 268 268 268 268 268 268 267 267 267 266 265 265 264 265 265 265 266 266 266 266 266 265 264 264 264 264 264 263 263 263 264 264 264 264 264 265 265 265 266 266 266 266 267 267 267 268 268 268 269 269 269 269 270 270 270 271 272 273 275 275 277 280 282 283 285 288 288 287 288 289 288 289 289
277 277 277 277 277 275 274 273 272 271 270 269 268 268 268 267 267 267 267 267 265 264 263 264 264 264 265 265 265 265 265 264 264 263 263 263 263 262 262 262 262 263 263 264 264 264 265 265 265 265 266 266 266 267 269 272 274 271 270 270 270 270 270 270 270 270 271 271 272 273 275 278 279 280 281 283 285 286 289 289 288 287 286 286 285
277 277 277 277 276 274 273 272 271 270 269 268 267 267 266 266 266 266 266 265 264 263 263 263 263 263 264 264 264 264 263 262 262 262 261 261 261 261 261 261 262 262 263 263 264 264 265 266 265 265 265 266 267 267 272 274 275 276 274 272 272 272 272 272 272 272 272 273 273 274 275 276 278 279 280 283 285 287 288 289 289 289 288 286 285
277 277 277 276 274 273 272 271 270 269 268 267 266 266 265 265 266 265 265 264 263 263 262 262 262 263 263 263 262 262 261 261 261 260 260 260 260 260 260 261 261 262 263 264 264 265 265 265 265 265 265 266 267 271 274 275 276 277 277 274 273 273 273 273 273 272 272 273 273 274 275 277 279 279 280 283 285 287 288 289 289 289 289 289 288
277 277 276 276 275 273 272 271 269 268 267 266 266 265 265 265 265 265 263 262 262 262 262 262 262 262 262 262 261 260 259 259 259 259 259 259 259 260 260 261 261 263 264 264 264 264 264 264 264 264 264 265 266 271 273 275 276 277 277 277 274 274 274 274 274 273 273 273 273 273 274 275 277 280 281 282 284 286 287 288 288 288 288 289 289
278 277 277 276 275 273 272 270 269 268 267 266 266 265 265 265 264 263 262 262 261 261 261 261 261 261 261 260 260 258 258 258 259 259 259 259 259 259 260 262 263 263 263 263 263 263 263 263 264 264 264 264 265 269 273 275 276 277 278 278 275 275 275 274 274 274 274 273 273 273 273 274 276 279 280 281 284 286 286 286 286 286 286 286 288
277 276 276 275 274 272 270 268 267 266 266 265 265 264 264 263 262 261 261 260 260 260 260 260 260 260 259 259 258 258 257 258 258 258 258 258 259 260 261 262 262 263 262 262 262 262 262 262 263 263 263 264 265 271 274 275 276 277 278 278 275 276 276 275 275 274 274 274 274 274 274 274 275 277 280 282 283 285 285 285 285 285 285 286 286
277 277 276 275 273 270 268 267 267 266 265 265 264 263 262 261 261 261 260 260 259 258 259 259 258 258 258 258 257 257 257 257 257 257 257 258 259 260 260 262 262 262 262 262 262 262 261 261 262 263 263 264 265 272 273 275 276 277 279 276 276 276 275 275 275 275 275 275 275 274 274 274 275 277 281 282 283 284 284 284 284 285 285 286 286
278 278 277 275 272 269 268 267 266 265 264 263 263 261 260 260 260 259 259 258 258 257 257 258 257 257 257 257 257 256 256 256 257 257 257 258 259 259 260 261 261 261 261 261 260 261 261 262 262 263 263 264 265 269 273 275 276 277 277 275 276 275 275 274 274 275 275 275 275 275 275 275 276 277 280 282 283 283 281 282 283 284 284 285 285
277 275 273 271 269 267 266 265 264 264 263 262 261 260 260 259 258 258 257 258 257 256 257 256 257 257 256 256 256 256 255 256 256 256 257 258 259 260 260 261 260 260 260 260 260 261 261 262 262 263 264 264 266 269 274 275 276 277 277 274 274 275 274 274 274 274 274 274 275 277 277 276 277 277 281 282 283 281 280 280 281 283 283 283 284
274 272 269 267 267 266 265 264 263 262 262 261 261 260 259 258 258 258 258 257 256 256 256 256 256 256 256 256 256 255 255 255 255 256 257 257 258 259 259 260 260 260 260 260 261 261 261 262 263 264 268 267 266 268 273 274 276 277 275 274 274 274 274 274 274 273 274 274 274 276 278 278 279 280 283 283 284 283 281 281 282 282 282 283 284
271 270 267 266 266 264 263 262 261 261 261 260 260 259 258 258 258 258 257 256 256 256 256 256 256 256 255 255 255 254 255 255 255 256 257 258 259 259 259 259 259 259 259 260 261 261 262 263 264 265 265 266 266 267 270 275 276 276 277 274 274 274 273 274 274 273 273 274 274 274 276 280 282 282 283 283 283 284 282 282 283 283 282 282 285
268 267 268 265 264 264 262 262 261 261 260 260 259 258 257 257 257 257 256 256 256 256 255 255 255 254 254 254 254 254 254 255 256 256 258 258 258 258 258 258 258 259 259 260 261 262 263 263 265 265 266 267 268 269 270 274 275 276 277 276 274 274 274 274 274 274 273 273 273 274 275 279 282 283 283 284 284 284 284 283 284 283 284 285 286
268 267 265 264 263 262 261 261 260 260 260 259 258 257 257 257 256 256 256 257 256 255 254 253 253 253 253 253 253 254 255 255 256 257 257 257 258 258 258 258 258 258 259 260 261 263 263 264 265 266 266 267 269 271 269 272 274 275 276 277 274 274 276 276 275 274 274 274 274 274 275 277 280 281 282 283 284 285 285 284 284 287 288 288 286
265 264 265 263 262 261 260 260 260 259 259 259 257 257 257 256 256 256 256 256 255 254 253 252 252 252 252 252 253 253 254 255 256 256 256 256 257 257 257 257 258 258 259 260 262 263 263 264 265 265 266 268 268 269 271 270 273 275 276 277 278 277 279 277 276 275 275 275 276 276 277 279 281 282 283 284 285 285 285 285 287 288 288 288 287
265 265 264 263 262 261 260 259 259 259 259 258 257 257 256 256 257 256 256 255 253 253 251 250 250 251 251 252 253 253 254 255 255 256 255 255 256 256 257 257 258 259 260 261 261 262 264 264 264 265 266 267 268 268 270 272 271 274 276 277 278 278 279 276 276 276 277 277 277 277 278 281 281 282 283 284 285 285 284 286 288 288 288 287 286
264 264 263 263 261 260 259 258 258 258 258 257 257 256 256 255 256 255 255 254 252 250 249 249 249 249 250 251 252 253 254 254 255 255 255 255 255 256 255 256 258 259 260 260 261 263 264 263 264 264 265 266 267 267 267 269 273 274 275 276 277 277 278 278 276 276 278 279 280 281 281 282 282 283 284 284 285 285 286 286 287 288 287 286 285
264 263 263 262 260 259 258 257 257 257 257 257 256 257 255 256 255 255 254 253 250 248 249 248 248 249 249 250 251 253 254 255 254 255 255 255 255 255 255 256 258 259 260 260 261 264 264 264 264 264 265 266 266 266 267 267 270 272 273 274 276 276 276 277 278 277 279 280 282 283 283 283 283 283 283 282 283 285 286 286 287 287 286 286 285
263 263 262 260 259 258 257 257 256 257 256 256 256 256 256 255 254 254 253 251 248 249 249 248 247 248 249 250 251 253 254 254 254 254 254 255 255 255 256 257 258 259 260 261 263 264 264 264 263 264 265 265 265 266 266 267 269 270 270 271 272 272 275 276 275 276 278 279 280 282 283 283 283 283 284 284 284 285 285 286 286 286 286 285 285
264 262 261 259 259 258 257 257 256 257 256 255 255 255 254 254 254 253 250 249 249 250 248 246 246 247 249 250 251 255 254 253 253 254 254 253 254 255 256 257 258 259 260 262 263 264 263 264 264 264 264 265 265 265 266 267 269 269 270 271 271 271 272 273 273 275 277 279 279 282 284 284 283 282 283 283 283 284 285 285 285 285 285 286 286
262 260 260 259 259 258 257 257 257 257 255 255 254 254 254 254 253 251 249 249 249 249 246 246 247 248 249 252 252 251 252 252 253 253 254 255 254 256 258 258 260 261 263 264 264 264 265 265 265 264 264 264 264 265 266 272 270 273 270 270 270 270 272 272 274 278 278 280 280 281 282 283 282 282 282 282 283 284 284 285 285 285 285 285 286
262 260 260 260 259 258 258 257 257 256 255 254 253 253 253 254 252 251 249 248 248 248 245 246 248 248 249 251 251 251 250 252 251 252 253 254 258 263 261 260 260 265 268 269 269 265 266 266 266 266 266 265 265 266 272 273 273 273 273 274 274 274 275 274 275 278 281 281 280 281 283 282 282 282 282 282 283 284 284 284 285 285 285 285 286
261 260 260 259 259 258 258 257 256 255 254 253 253 253 252 253 252 252 250 248 248 247 246 247 248 247 250 252 251 251 252 252 251 252 252 252 253 255 262 264 265 266 267 268 269 269 270 270 267 265 268 271 271 272 272 272 272 272 272 273 273 273 274 275 274 272 280 278 279 281 283 283 283 284 284 284 284 284 284 284 285 285 285 286 286
Wind_Speed
7 8 8 9 9 8 7 6 6 6 6 6 6 5 5 5 3 3 3 3 2 2 2 2 2 3 2 3 5 4 5 4 3 1 0 2 1 2 3 3 4 5 5 6 8 8 7 8 8 8 8 8 9 9 9 10 8 8 10 11 13 14 12 9 11 11 12 14 11 13 14 12 14 14 15 14 14 14 13 13 13 14 14 15 15
5 8 8 7 8 8 6 6 6 8 6 6 7 8 6 4 4 4 3 3 3 3 3 2 2 2 3 5 5 6 6 5 5 4 4 3 3 4 5 5 6 6 7 7 8 7 8 8 8 8 8 8 8 9 8 7 7 8 9 12 10 13 14 10 10 10 11 11 13 14 14 13 12 15 16 16 15 14 14 15 14 15 16 16 14
10 12 9 10 10 9 8 7 8 10 10 9 8 5 5 4 5 4 3 3 4 4 3 2 3 3 2 3 4 5 4 4 4 3 3 3 3 3 4 3 4 5 5 6 6 7 7 8 8 8 7 8 8 7 6 9 8 9 10 10 14 12 12 12 11 8 12 10 11 13 15 14 12 8 8 11 13 13 13 14 15 16 19 16 15
16 16 16 13 12 11 8 8 9 7 8 6 5 6 5 5 4 4 4 4 3 3 3 3 3 3 3 4 5 5 5 4 4 3 2 2 5 4 3 4 5 5 5 5 6 6 7 8 8 8 9 8 9 10 10 10 10 10 8 10 10 15 11 10 10 10 9 9 10 7 10 10 15 12 7 5 7 11 11 12 12 15 16 17 14
17 14 14 14 14 13 12 10 8 9 8 8 7 6 5 6 6 5 4 4 4 3 4 3 2 2 3 4 4 4 4 5 4 2 1 2 3 3 3 3 4 4 4 4 5 6 6 6 7 8 8 9 8 10 10 9 11 9 10 10 9 10 15 13 11 10 13 11 11 11 10 10 13 14 9 15 8 8 8 10 12 15 14 16 15
17 18 19 18 16 12 10 10 10 9 9 8 8 7 5 5 4 4 3 3 3 3 3 2 1 1 3 5 7 5 7 8 9 9 9 8 8 6 6 5 5 5 6 6 6 6 7 7 7 8 8 7 8 9 9 10 9 9 8 7 10 9 12 15 16 11 12 14 14 14 12 12 13 9 11 15 9 6 12 13 14 16 15 14 14
12 11 11 14 15 12 12 11 11 10 9 7 6 6 5 5 5 4 4 3 3 3 2 2 1 1 1 2 3 4 5 4 2 3 4 6 5 7 6 5 5 6 6 6 6 7 7 7 8 8 8 7 8 9 10 11 9 10 9 10 10 11 11 14 17 14 13 14 13 15 17 17 16 13 13 10 16 14 8 9 12 11 10 12 14
15 16 17 17 16 17 16 13 11 11 9 7 6 5 6 6 5 4 4 3 3 2 2 1 1 1 2 2 3 4 3 6 5 5 4 5 7 7 6 6 5 5 7 6 7 7 8 8 8 9 9 9 9 9 10 9 10 9 11 13 11 11 11 13 15 14 13 14 11 14 15 15 17 19 18 15 14 16 21 10 11 14 12 11 12
16 15 18 19 19 16 12 12 10 9 8 9 7 7 6 5 4 3 3 3 3 2 1 1 1 1 2 3 4 3 4 5 5 5 5 5 7 6 7 7 6 5 6 7 7 7 8 9 8 9 10 10 9 9 9 10 12 12 12 10 10 10 7 9 11 13 13 16 12 13 15 15 15 15 15 13 13 14 17 17 15 14 11 11 11
13 16 15 16 15 13 10 10 10 9 8 8 6 5 5 4 4 3 3 2 2 2 1 1 1 1 2 3 4 6 4 6 4 7 6 5 8 8 7 7 7 7 6 6 7 7 8 8 9 10 10 10 9 10 10 12 10 11 11 10 11 11 9 10 12 12 12 15 15 14 13 14 15 13 13 12 12 13 16 16 12 14 18 15 10
12 13 13 13 11 10 9 12 11 9 7 7 6 6 5 5 4 3 3 2 2 2 1 2 1 1 2 3 4 6 7 6 8 8 7 8 9 9 8 8 8 8 7 8 7 8 8 8 10 10 10 10 11 9 10 10 10 11 11 13 14 13 12 11 16 15 15 15 17 15 15 14 14 14 12 10 11 10 11 14 12 11 15 17 17
11 11 12 12 10 10 8 11 11 10 7 7 6 5 5 5 3 3 3 2 2 1 1 2 2 3 2 3 4 5 6 6 7 9 9 10 9 10 9 9 9 8 7 7 8 8 9 9 9 10 10 9 10 8 11 9 11 10 11 11 10 11 12 12 11 13 16 15 18 16 16 15 15 17 15 11 10 11 11 14 12 10 13 13 13
11 12 11 13 16 15 12 11 10 10 10 9 8 6 6 4 4 3 3 2 2 1 1 2 2 3 3 3 4 5 5 6 7 8 8 9 9 10 10 10 9 10 9 8 9 9 9 11 11 9 9 9 10 11 10 12 11 11 12 11 14 13 12 12 13 14 15 15 15 14 13 13 15 15 17 15 12 11 10 14 12 9 13 15 12
12 12 13 15 16 14 13 12 11 10 10 9 7 6 6 5 4 3 4 1 1 1 2 2 3 3 3 3 5 5 5 5 6 8 8 8 8 9 10 9 10 11 11 11 8 10 10 11 11 11 11 11 12 12 12 11 10 11 11 13 14 12 11 15 14 17 16 20 15 11 11 12 14 15 15 15 14 11 11 13 12 9 11 15 12
9 11 13 15 15 14 13 12 11 11 10 8 6 6 6 4 4 3 3 2 0 1 1 3 3 3 3 4 5 4 5 5 6 6 8 9 9 9 9 8 9 10 11 10 12 10 13 11 11 12 11 11 11 12 12 12 13 12 12 13 13 10 12 13 14 15 16 17 18 15 15 15 12 15 15 16 14 12 12 11 8 12 13 12 14
10 11 12 12 13 12 11 11 11 10 9 7 7 6 5 5 4 4 3 2 1 1 2 2 3 3 4 5 5 4 5 5 6 6 7 7 10 9 11 10 8 11 12 11 12 10 12 10 11 11 11 12 12 12 11 12 10 11 12 10 15 10 12 16 14 15 17 20 16 17 14 13 16 13 16 15 14 12 11 10 9 10 14 17 11
11 13 13 13 10 11 11 11 10 9 8 8 8 7 7 5 4 3 2 1 1 1 2 3 3 4 5 5 5 5 5 6 8 9 9 8 8 9 9 10 10 10 10 11 11 12 10 13 12 14 12 12 12 12 12 12 10 12 12 14 15 13 14 16 13 14 16 14 12 19 13 14 13 14 15 14 13 12 11 11 11 12 11 14 14
10 10 9 11 12 12 10 9 10 10 9 8 7 6 5 5 5 3 1 1 1 1 2 2 3 4 5 5 4 5 6 7 8 9 9 9 9 9 9 10 10 9 10 10 11 13 13 12 12 12 12 13 12 12 11 11 13 12 13 14 12 12 13 14 14 13 18 13 16 13 13 13 13 15 13 15 13 13 12 12 12 12 12 15 12
10 12 12 13 14 14 13 11 9 9 8 8 7 6 4 4 3 3 3 2 2 2 2 2 3 4 4 4 6 6 6 7 7 8 9 9 11 11 12 11 10 10 11 12 11 13 12 14 13 12 13 12 11 13 11 12 11 12 13 12 13 12 13 15 12 15 13 15 17 16 16 14 16 14 16 15 13 12 11 11 11 11 13 13 13
12 12 13 14 14 12 13 12 11 9 8 7 7 5 5 4 3 2 1 1 1 2 2 3 4 4 5 5 5 6 6 7 7 8 9 10 11 11 12 12 12 9 11 12 12 12 14 13 12 12 13 13 13 11 11 12 11 12 14 14 13 15 18 17 14 12 14 13 13 16 14 14 13 14 14 14 13 11 12 11 11 12 13 13 12
13 13 13 14 13 11 10 9 9 7 6 6 6 6 5 4 3 2 2 2 2 2 2 4 3 3 5 6 6 6 7 7 8 8 10 10 10 11 11 11 10 12 10 12 12 13 14 13 14 16 14 13 16 15 11 15 14 14 13 14 15 16 17 17 16 16 14 11 14 14 16 14 13 17 15 15 13 12 11 11 11 11 12 12 12
12 12 11 11 10 9 8 7 6 8 7 7 5 5 5 4 3 2 2 1 1 2 3 3 3 4 5 6 6 6 7 7 8 9 10 10 10 10 11 11 12 11 10 12 14 14 12 14 17 16 18 16 14 20 17 14 17 16 17 14 15 17 18 16 13 18 15 15 17 16 18 14 14 15 15 17 14 11 11 11 12 13 12 12 11
11 11 11 11 11 11 11 10 9 10 9 7 6 5 5 4 3 2 2 2 2 3 2 2 4 5 6 6 6 7 7 8 9 9 10 11 10 11 10 11 11 11 11 11 14 14 16 15 18 17 18 18 17 17 17 16 18 18 18 17 16 17 18 19 18 15 14 16 17 16 18 15 13 16 18 17 15 13 11 11 13 12 13 12 12
7 8 8 9 9 9 10 10 10 9 7 7 6 5 4 4 3 2 2 2 2 2 2 3 4 5 5 6 7 7 8 8 9 8 10 10 10 10 9 11 11 11 13 13 13 14 16 17 16 20 16 19 18 18 18 17 18 19 18 19 18 18 18 18 19 18 15 15 17 17 17 15 14 15 17 16 14 12 12 11 13 13 12 13 12
8 11 11 10 10 13 13 11 10 9 7 7 6 5 5 4 3 2 2 2 1 2 2 3 3 6 6 7 8 8 9 9 9 9 11 12 11 11 11 12 13 13 13 13 14 14 14 16 15 18 19 19 19 18 19 19 18 18 18 18 18 18 17 18 18 16 15 14 15 16 16 14 14 15 16 15 13 14 11 11 11 11 11 11 11
11 10 11 16 16 12 10 10 9 9 8 7 6 6 5 4 3 2 2 1 2 1 2 3 4 6 6 7 8 8 8 9 10 10 10 10 10 11 11 11 10 14 14 14 15 14 14 17 18 18 19 21 19 19 19 20 19 19 18 18 18 18 18 18 17 18 17 16 17 19 18 15 14 15 15 14 14 14 11 10 10 9 8 9 11
14 15 14 9 8 14 12 10 9 9 7 7 6 5 5 4 3 2 1 1 1 1 3 4 5 6 7 8 8 8 9 9 9 9 9 10 11 11 11 12 12 13 14 15 15 16 15 18 19 19 20 19 20 19 19 19 19 19 19 19 18 18 18 17 17 17 17 17 17 17 18 18 17 17 17 16 13 12 10 10 11 11 10 11 11
8 9 13 17 16 12 11 11 10 9 8 7 6 6 5 4 3 2 1 1 1 2 3 4 5 6 7 8 8 8 9 9 9 10 10 10 10 11 11 12 12 14 15 16 16 16 20 18 19 19 19 18 19 19 19 18 18 18 18 18 18 18 18 17 17 17 18 18 17 17 18 19 20 18 16 16 16 12 9 9 10 10 9 10 10
12 15 15 14 15 14 12 11 10 9 9 8 7 5 4 3 3 1 1 1 1 2 4 4 5 6 7 7 8 8 8 9 10 10 10 11 11 12 12 12 13 13 13 14 17 20 18 20 21 18 19 19 17 17 16 15 16 17 17 17 18 18 18 17 17 18 17 17 17 17 17 18 21 24 28 24 22 18 10 8 8 8 8 9 8
16 17 17 15 13 12 12 11 10 10 9 8 7 6 4 4 3 2 1 0 3 2 3 5 6 7 7 7 8 8 8 9 10 10 11 11 12 12 12 13 13 12 13 14 14 14 19 19 18 19 18 16 16 13 18 29 26 19 19 16 16 16 16 16 16 16 16 16 18 17 17 25 27 28 28 29 29 29 24 13 9 7 8 9 9
16 14 13 12 12 11 11 12 11 11 10 8 7 5 5 3 3 2 1 1 2 2 3 4 6 6 7 7 7 7 8 9 9 10 10 11 12 12 12 13 14 14 14 14 15 18 16 16 19 18 19 17 17 16 27 28 30 32 23 20 19 17 18 18 15 17 16 16 15 16 16 19 23 25 24 29 29 29 27 22 21 18 13 11 9
15 14 13 13 14 14 14 13 12 10 10 9 8 6 5 4 4 2 1 1 2 2 4 5 6 6 6 6 6 8 8 8 9 9 10 11 11 12 12 13 14 15 14 13 14 15 16 17 16 17 18 17 17 24 30 31 32 32 28 21 18 17 15 15 16 15 16 16 16 14 14 13 13 16 17 17 21 28 30 25 24 23 21 23 20
14 15 16 17 17 16 14 12 11 11 10 9 8 7 6 5 4 2 1 1 2 2 4 5 5 5 6 6 6 7 7 8 8 10 10 11 12 12 13 14 15 14 13 15 16 16 16 16 16 18 18 18 18 26 31 33 32 32 32 26 18 15 18 15 17 15 15 15 15 14 15 16 14 22 19 16 15 12 16 23 22 23 23 24 23
12 15 16 15 12 11 11 13 12 10 9 8 7 6 6 4 4 2 1 1 2 3 4 5 5 5 5 6 6 6 7 8 8 10 10 11 12 13 12 13 14 14 14 15 15 17 16 16 17 18 18 19 20 25 32 32 32 32 31 27 17 19 18 17 17 15 15 15 17 15 15 15 15 15 14 15 13 12 11 10 11 11 11 14 18
14 14 14 16 16 14 12 12 12 11 9 9 8 6 6 4 4 2 1 1 2 3 4 5 5 5 5 4 5 6 7 9 9 10 11 11 12 13 14 12 11 13 15 14 15 16 16 16 16 16 16 19 18 30 32 34 33 32 30 28 17 16 15 14 13 14 16 14 17 16 16 17 16 16 12 14 14 12 11 10 11 12 12 12 11
15 19 18 19 19 20 19 14 10 10 9 8 7 7 6 5 3 3 2 1 2 3 5 4 3 5 3 5 5 6 7 9 10 11 11 12 12 12 14 13 12 12 12 12 13 13 15 16 16 16 16 18 18 32 33 32 32 30 31 18 15 16 15 12 12 13 15 13 14 16 16 17 18 17 18 25 22 15 10 11 12 13 12 12 12
15 17 17 15 16 17 15 12 11 10 10 8 7 7 6 5 4 3 2 3 2 3 3 4 4 5 5 5 5 6 8 9 10 11 12 12 13 14 12 11 13 12 12 13 13 13 13 15 17 16 17 17 18 25 32 33 32 31 24 14 13 11 10 12 14 13 13 15 15 16 16 16 17 17 18 22 23 22 15 15 13 13 12 12 13
11 11 14 15 14 15 10 11 13 10 8 8 8 7 6 5 4 3 2 3 2 2 4 3 4 3 5 5 6 6 8 9 9 11 12 12 12 11 11 10 12 13 14 13 13 14 13 13 15 17 15 17 18 25 33 32 30 29 25 17 14 12 10 12 13 12 11 12 15 24 23 18 17 17 24 28 27 22 16 16 15 15 15 14 14
18 22 19 17 14 12 13 11 11 11 9 8 8 7 6 5 4 4 3 2 2 2 2 3 4 4 5 4 5 6 7 8 9 10 11 13 12 12 11 10 10 11 13 12 12 13 14 13 13 16 24 24 19 24 30 27 28 29 24 16 13 12 8 10 12 12 12 12 13 17 25 22 20 18 24 23 23 19 15 15 16 15 16 16 14
13 13 18 16 14 16 11 11 10 10 10 10 8 7 6 6 4 4 3 2 1 2 3 3 4 4 3 4 4 5 7 8 10 11 11 10 10 11 11 12 11 10 12 12 12 12 15 15 15 15 17 17 17 16 18 28 29 30 30 19 13 13 12 12 12 10 8 10 11 14 17 24 26 27 27 28 26 25 17 15 14 15 16 17 10
18 16 14 13 10 10 12 11 10 10 9 8 7 7 6 5 5 4 3 2 1 1 2 3 3 4 4 5 5 4 8 9 9 10 10 10 9 11 12 12 12 11 11 12 14 14 14 15 14 15 14 14 15 16 17 30 29 29 30 25 14 15 15 12 12 11 10 11 10 12 12 18 24 25 26 26 26 26 24 16 15 15 14 12 10
10 13 16 17 12 11 11 10 9 10 8 8 8 7 6 5 5 4 2 2 1 1 1 2 3 4 4 5 5 6 6 8 9 8 10 10 9 9 10 11 11 11 14 14 14 14 14 15 14 13 15 17 15 21 20 25 29 30 29 32 19 15 17 13 8 8 11 10 12 12 12 17 25 27 27 27 27 26 27 17 16 17 15 16 13
15 12 7 15 14 11 10 11 10 9 8 7 8 8 6 5 5 4 3 2 1 0 1 1 2 4 5 6 6 7 8 7 8 9 9 11 10 9 10 10 11 12 13 14 14 16 16 15 15 14 14 15 16 16 24 22 27 30 32 31 31 24 27 18 13 9 10 12 11 13 14 21 23 24 25 25 25 25 22 15 20 20 22 23 16
6 8 12 10 12 11 11 10 9 8 7 7 7 8 6 6 5 4 3 2 1 1 0 1 2 4 5 6 7 7 7 7 7 9 8 9 10 10 10 9 11 11 11 13 15 14 13 14 15 15 14 14 16 17 20 26 25 32 31 31 30 29 28 18 16 13 12 11 11 13 14 21 23 24 25 24 23 21 14 16 18 20 21 17 10
17 14 11 9 13 14 12 11 8 8 6 6 5 8 8 6 5 4 3 3 1 1 1 3 3 4 5 6 8 7 7 6 6 7 9 9 10 9 9 9 9 10 11 12 11 10 14 14 16 18 18 17 16 16 16 21 30 30 30 30 30 30 28 26 17 12 12 11 15 23 25 24 23 23 24 23 19 21 25 23 20 19 17 9 9
11 12 10 11 10 11 12 12 9 8 7 6 5 6 9 7 6 4 4 2 2 2 3 4 3 3 4 6 8 9 8 6 6 5 6 7 8 10 9 10 9 10 12 13 10 12 15 16 16 19 18 19 20 20 18 17 18 21 23 29 31 28 26 26 23 17 22 25 24 24 29 28 24 21 15 12 10 9 17 21 19 17 10 9 8
15 13 14 12 12 11 11 11 11 9 7 6 6 5 5 6 5 5 4 3 3 4 4 4 4 3 4 4 5 6 8 9 7 5 4 6 8 8 9 9 9 10 10 8 10 13 14 15 16 15 16 18 18 16 16 16 15 16 16 19 19 18 24 22 14 11 13 12 14 16 14 20 18 20 20 17 15 14 12 10 9 10 10 9 8
9 13 10 11 11 11 12 11 10 9 8 7 6 6 6 6 5 5 5 4 5 5 5 3 3 3 4 4 4 7 8 8 9 8 7 5 4 6 8 10 10 11 9 10 10 12 13 11 12 13 15 17 16 15 16 18 18 19 18 17 14 14 14 12 15 14 13 12 10 13 15 12 13 12 12 10 10 10 10 9 9 9 9 9 10
14 12 14 12 12 11 11 12 10 9 8 7 7 6 6 6 5 6 5 5 6 4 4 2 2 2 4 3 4 4 5 6 8 10 8 5 6 8 8 9 9 8 11 13 14 11 10 11 9 13 14 12 14 16 18 26 24 30 24 21 18 17 15 16 20 26 18 12 8 8 8 7 8 9 9 9 10 9 9 10 11 9 8 8 8
8 9 9 12 10 12 13 11 9 9 8 8 8 7 6 6 5 5 5 7 6 5 4 2 1 2 4 4 4 5 4 5 5 5 9 13 12 14 10 9 9 18 23 23 20 14 16 16 12 13 14 17 17 19 33 37 34 34 34 34 31 30 28 25 30 35 15 7 6 6 6 8 9 9 10 10 10 9 9 9 9 9 9 8 8
13 13 12 15 12 11 13 10 9 9 8 8 8 7 6 5 5 4 6 8 6 6 3 1 1 2 3 4 5 5 5 5 4 4 4 4 10 14 16 17 18 21 22 23 22 24 26 27 20 15 17 31 31 34 36 36 36 35 35 34 33 31 31 31 33 22 10 10 8 7 5 7 7 7 8 9 8 8 8 7 7 7 7 8 8
Wind_Direction
191 200 198 192 191 191 190 178 183 182 177 179 177 193 189 188 174 218 230 232 217 228 252 224 263 296 278 255 269 274 282 292 310 9 274 261 273 298 314 317 327 330 335 336 337 333 330 324 324 323 319 314 305 299 298 294 289 297 304 301 300 297 288 279 281 288 291 288 283 280 281 271 270 268 264 262 260 259 257 256 251 251 248 245 244
180 211 208 198 194 197 188 183 175 171 201 181 185 193 193 191 182 216 233 222 216 207 210 217 211 206 235 266 272 290 298 301 317 340 334 328 335 339 335 335 337 338 335 337 331 328 324 322 318 313 313 301 292 287 285 283 298 301 305 303 299 301 297 296 289 297 283 288 305 301 287 284 270 264 257 252 253 252 254 249 247 246 245 244 240
197 209 201 198 195 199 190 191 193 186 180 185 191 181 189 193 207 215 216 209 223 216 198 220 228 237 212 255 253 273 260 248 256 270 293 297 316 324 314 312 318 321 322 323 320 317 313 313 308 307 302 304 303 299 298 299 297 298 300 297 304 293 287 293 288 267 282 289 287 294 291 309 295 256 255 261 253 251 250 247 244 242 242 241 239
202 199 199 194 194 196 195 196 198 189 179 185 181 190 194 197 204 207 220 216 222 225 215 220 225 235 248 251 265 248 266 265 261 271 290 342 319 312 310 316 321 312 309 303 300 300 304 305 308 308 310 314 312 309 308 302 302 299 294 291 292 296 294 290 292 291 279 293 287 258 291 296 297 285 312 275 296 296 287 275 265 250 244 240 234
202 199 197 193 195 201 196 196 190 186 185 183 186 192 189 196 199 196 210 213 215 216 218 224 237 275 260 268 252 270 261 248 230 247 191 261 276 284 288 277 279 284 279 275 283 292 294 297 303 304 305 306 303 297 295 292 292 285 285 283 282 292 299 296 289 289 286 268 267 285 280 265 257 286 331 293 281 278 281 295 294 291 267 245 233
203 200 195 192 193 194 199 196 190 192 188 190 184 191 183 195 190 205 223 225 222 226 217 205 228 269 323 347 349 344 331 339 344 344 335 333 322 315 313 312 305 298 296 299 295 298 302 301 300 302 298 295 293 290 288 290 282 280 275 282 287 284 292 299 294 287 281 280 266 262 264 274 289 290 315 291 296 234 283 278 275 271 272 274 246
208 201 194 192 197 193 199 195 191 187 196 183 182 189 192 189 188 195 206 219 222 228 211 211 254 253 287 304 268 278 293 271 267 286 287 295 295 300 299 297 291 292 293 290 297 297 298 301 301 299 297 293 295 295 294 294 296 296 297 288 283 286 283 284 287 292 288 272 272 266 264 263 264 273 267 289 288 292 234 278 283 274 282 292 287
198 199 195 196 193 193 193 191 188 190 184 175 180 191 191 202 190 201 210 217 231 226 227 203 259 281 314 295 281 287 284 289 303 290 275 281 293 292 294 285 280 276 286 294 293 298 300 300 299 298 298 295 292 286 284 286 285 280 281 279 277 270 269 270 282 283 283 284 280 284 275 266 257 255 254 257 275 284 291 270 265 267 270 265 268
197 196 195 193 195 196 188 187 192 186 175 173 184 191 196 196 184 181 215 219 243 236 224 253 248 273 262 275 291 283 287 293 296 291 290 289 286 290 288 287 283 274 274 289 294 295 299 297 296 295 293 292 288 282 279 280 281 283 279 271 267 269 260 273 279 280 280 278 288 274 278 275 265 250 250 243 249 269 272 283 292 288 272 264 272
204 203 196 195 195 191 188 179 183 186 180 175 182 178 186 181 188 184 236 224 234 254 227 273 267 261 285 288 304 308 306 300 296 304 305 304 296 292 290 291 291 292 285 283 292 293 295 294 291 290 290 287 285 282 282 281 280 282 284 286 285 279 271 269 269 273 270 272 269 274 272 275 273 257 243 238 246 244 265 276 276 286 293 287 271
201 198 196 195 188 186 181 184 181 182 177 176 177 181 182 185 195 198 228 237 242 249 244 279 281 281 294 310 312 310 310 309 317 313 312 309 304 301 299 299 297 295 300 298 288 290 288 286 288 286 282 281 281 281 279 281 280 279 277 275 271 269 272 264 265 263 267 266 266 263 264 264 266 264 250 231 232 243 253 262 268 258 266 279 278
194 187 190 181 178 195 184 184 179 178 175 179 189 184 182 191 185 214 245 247 261 267 308 291 292 303 315 314 311 300 299 306 308 304 305 301 298 299 300 298 299 299 296 295 294 295 293 288 283 281 277 274 273 273 276 276 277 274 274 269 267 260 260 264 264 265 263 264 259 256 257 259 259 259 257 246 235 240 246 263 268 282 279 265 277
189 190 182 183 188 187 189 182 175 179 182 188 191 186 184 180 192 202 250 238 257 266 291 293 318 317 321 315 299 288 290 294 295 293 294 296 299 299 304 305 308 306 302 295 291 294 295 293 291 282 278 269 270 273 272 272 272 272 273 271 270 267 266 261 262 258 262 262 268 257 257 263 266 268 261 250 243 247 244 262 259 258 270 279 269
193 188 189 190 190 189 184 177 179 179 185 188 186 179 178 186 188 192 235 236 264 315 305 321 312 308 310 295 282 280 285 287 288 290 292 290 292 295 302 304 303 297 299 295 294 292 287 283 282 278 274 274 273 272 271 268 267 269 269 270 269 265 261 261 261 261 257 257 261 272 268 272 273 268 262 250 243 237 240 247 264 261 257 270 278
190 191 193 192 190 183 181 179 180 183 185 185 179 179 167 185 186 197 237 269 265 279 318 310 301 302 297 277 270 275 277 283 282 282 288 294 295 295 294 296 293 296 295 294 297 291 288 284 278 277 278 275 273 273 273 272 269 270 270 270 269 263 265 265 264 269 273 273 272 267 270 268 269 273 264 252 243 236 236 243 244 265 269 262 268
190 194 195 195 188 182 180 181 183 181 183 178 177 170 170 189 184 194 203 235 262 297 301 285 288 294 285 277 277 278 286 288 286 283 282 285 292 296 295 292 288 291 293 294 292 292 289 286 283 275 276 276 276 271 270 270 268 268 271 266 269 262 263 260 258 261 262 264 264 265 264 261 264 262 263 255 244 239 235 239 237 244 261 276 269
191 196 195 188 181 190 185 179 179 180 175 178 178 173 174 175 175 193 207 223 242 276 264 282 288 289 279 278 287 293 291 290 290 292 292 291 290 292 291 290 289 287 289 292 292 291 286 288 290 289 284 280 275 274 269 267 267 269 270 272 268 267 262 262 260 261 263 265 262 260 257 262 262 267 261 250 242 239 236 239 236 238 241 255 271
198 198 194 188 189 186 182 181 178 177 178 175 173 172 164 163 170 170 195 244 265 243 263 267 282 278 278 284 290 290 293 290 289 292 297 298 295 292 290 292 290 290 289 290 292 293 293 292 288 286 285 281 276 274 269 269 271 270 271 268 265 266 264 263 262 262 264 262 260 256 254 259 259 260 262 255 240 238 235 235 237 236 233 245 254
193 194 190 188 189 190 184 178 175 175 172 168 162 149 143 153 157 156 200 214 228 244 268 281 269 271 280 296 299 299 291 289 293 296 299 298 297 296 295 290 289 289 291 293 293 293 292 293 291 287 286 284 279 276 273 275 270 271 272 270 266 262 259 261 255 256 255 253 251 252 251 253 256 261 262 256 242 235 233 233 239 238 235 237 247
198 195 195 193 191 187 179 172 171 169 163 164 148 138 148 156 150 163 174 197 236 272 271 277 268 277 294 292 288 286 290 294 300 303 300 297 294 295 294 293 290 289 288 291 291 291 292 294 293 290 291 290 288 286 283 277 272 266 273 271 266 264 266 266 265 258 263 259 260 259 255 255 255 258 259 257 247 237 231 236 236 238 238 234 238
200 196 194 190 186 181 176 169 168 164 157 148 148 153 152 142 155 161 185 221 234 251 253 256 272 282 287 289 293 299 301 303 300 297 297 295 295 292 291 290 292 289 294 292 292 293 296 293 296 297 294 294 295 291 289 288 281 277 273 273 274 270 266 266 264 263 261 266 268 263 261 261 266 265 267 262 248 236 232 233 236 238 237 234 230
199 198 189 183 179 174 166 163 156 152 152 151 146 128 133 153 160 172 171 199 228 259 244 271 284 284 286 296 300 304 303 302 300 300 297 296 293 293 293 293 291 291 292 292 296 298 297 299 298 297 295 291 287 291 289 286 283 282 280 279 278 277 274 270 263 264 262 259 260 266 266 261 251 253 255 254 247 235 230 232 236 236 238 234 226
196 189 186 181 180 176 167 162 162 162 161 153 146 146 151 153 152 179 166 226 228 239 260 282 288 292 298 303 308 307 305 301 300 299 298 298 296 294 292 292 293 296 296 297 299 300 299 300 296 293 294 291 289 288 287 287 283 281 279 279 279 278 277 274 267 261 259 263 260 253 256 256 258 260 261 253 244 234 229 232 238 240 241 235 229
185 181 176 176 172 165 160 169 169 162 153 157 152 142 142 151 161 169 190 229 235 257 280 280 287 295 304 309 309 303 301 301 301 302 298 296 294 290 293 295 299 302 302 300 297 298 301 298 296 293 291 290 290 290 286 284 282 279 278 278 279 278 277 276 271 266 260 260 260 260 255 253 256 258 259 257 244 230 227 229 238 240 240 241 231
180 182 178 169 173 178 180 170 166 161 154 150 147 149 149 161 152 176 204 215 248 272 281 290 304 310 311 308 300 302 298 296 293 290 288 291 294 300 300 300 301 302 304 306 302 302 295 293 291 293 292 292 289 287 287 285 282 280 276 276 277 277 274 274 277 277 275 272 268 262 258 252 255 257 260 257 245 229 220 229 236 240 239 241 240
188 176 170 185 189 179 167 168 162 159 155 150 147 147 151 153 167 169 187 227 275 265 292 315 317 311 304 295 289 289 295 295 295 294 290 289 293 300 304 304 305 304 307 302 300 300 298 295 293 291 291 291 289 286 284 284 282 280 277 273 273 273 274 273 269 268 267 265 267 268 272 268 258 257 259 263 248 225 218 222 233 239 238 243 245
187 185 188 174 173 186 174 160 159 154 149 149 148 150 152 155 160 170 158 243 268 312 326 325 317 304 293 289 292 297 299 296 291 291 295 301 303 307 311 309 309 305 304 305 301 296 294 295 291 291 289 289 287 283 281 280 279 277 275 272 271 271 272 273 270 270 268 267 262 261 258 259 260 255 256 259 257 232 213 217 227 237 239 244 247
186 183 184 190 189 173 165 162 152 150 141 142 146 147 154 154 165 163 182 242 301 350 331 322 311 297 288 290 297 300 299 296 298 302 304 304 306 309 310 310 310 306 304 301 299 299 300 294 293 290 287 286 285 282 278 278 275 271 270 268 267 268 268 268 268 266 267 270 268 261 255 252 251 253 254 254 259 251 225 220 225 230 230 234 241
188 197 195 188 183 177 165 158 154 145 149 147 145 141 140 142 140 172 199 294 32 359 333 317 303 292 291 298 301 302 299 298 305 306 309 313 315 313 310 309 304 300 297 295 299 296 291 294 289 285 288 284 282 284 280 275 274 271 265 264 264 264 263 263 261 261 259 261 265 264 257 249 250 252 253 253 254 254 239 222 219 232 243 250 256
198 200 196 191 180 166 161 155 153 157 153 152 151 150 153 155 173 198 195 126 77 354 318 306 296 294 296 300 302 299 302 308 310 315 316 317 315 314 310 308 304 298 297 295 286 285 291 290 295 293 289 287 282 281 278 275 275 276 271 266 264 261 261 259 260 259 255 253 255 256 259 261 260 257 256 255 255 253 245 227 219 218 231 246 249
206 200 191 181 169 163 158 158 162 159 159 153 150 148 141 155 180 178 180 112 60 319 290 279 280 289 297 298 299 302 307 311 315 315 317 317 315 313 309 306 305 303 300 297 292 298 299 301 299 298 298 294 288 282 284 284 282 280 278 275 270 269 266 260 258 266 268 262 258 255 253 254 256 256 256 255 255 252 246 235 231 230 227 233 245
203 194 179 171 170 172 168 165 161 157 152 151 151 152 152 170 172 158 162 49 327 289 282 278 278 286 290 296 302 307 312 316 321 319 317 315 311 310 309 308 307 306 304 300 299 303 305 305 302 300 299 298 296 295 293 291 288 286 283 279 275 269 264 263 257 255 262 265 269 274 275 273 257 250 250 253 252 248 245 238 235 238 237 239 238
195 184 182 179 177 174 165 156 156 156 154 154 147 148 165 168 150 155 100 294 279 272 277 278 282 282 288 305 307 315 320 322 324 319 315 314 313 311 311 312 310 307 306 313 311 309 307 307 305 303 300 299 298 296 297 295 293 289 286 284 278 270 268 261 262 253 255 258 262 265 265 259 266 264 261 256 256 254 243 241 241 243 241 241 245
190 185 179 174 162 159 160 159 152 145 137 129 136 144 141 135 131 140 152 231 268 280 275 275 277 286 296 306 314 325 324 323 320 318 316 315 315 311 310 307 308 312 314 311 311 310 309 308 308 304 301 298 295 295 296 298 298 295 290 286 282 278 268 257 250 246 252 257 259 259 261 259 261 261 252 258 261 249 244 236 236 236 235 239 243
179 172 171 171 168 156 144 138 136 134 132 135 137 137 134 131 142 147 173 199 251 272 275 276 290 295 304 316 331 332 329 324 323 320 317 313 311 311 312 313 312 314 315 314 315 313 309 306 302 299 298 298 295 295 298 300 301 298 294 291 284 280 273 263 253 247 248 247 253 255 256 259 259 258 250 252 256 252 242 238 238 240 240 242 242
182 177 174 167 167 160 149 136 132 130 135 138 139 136 134 140 139 151 172 236 247 258 270 281 290 308 318 334 338 334 331 326 322 321 317 313 313 313 314 314 312 309 307 306 305 302 302 302 299 299 299 297 294 298 300 301 302 301 300 295 286 279 268 255 249 251 250 243 250 251 251 251 254 256 253 250 251 256 258 247 243 246 249 249 248
183 174 167 157 136 129 121 125 130 133 135 138 137 131 131 133 145 164 167 232 242 250 272 287 290 312 332 338 342 335 329 324 321 318 314 313 313 314 313 314 310 309 309 308 304 301 299 299 301 301 302 298 293 297 302 305 304 303 304 294 290 277 253 246 252 249 253 255 253 252 252 253 249 252 256 255 252 253 262 262 256 251 251 254 258
129 117 118 132 130 100 112 126 128 127 131 132 131 134 131 143 154 172 189 226 222 244 279 288 305 324 331 339 339 333 325 320 317 312 309 308 306 303 305 310 308 310 310 307 304 301 299 299 301 303 301 300 299 300 303 303 304 304 309 311 305 294 258 254 250 238 237 245 254 252 249 248 247 242 243 248 249 248 250 252 256 257 256 256 259
147 144 138 133 129 126 124 116 120 129 138 135 133 134 141 152 158 179 200 210 220 264 287 311 319 330 327 334 329 325 317 311 308 303 305 306 308 309 307 306 303 302 301 300 300 300 300 302 301 302 306 307 298 298 298 301 307 312 313 307 302 296 267 252 246 242 234 241 246 253 252 250 250 245 243 244 242 239 238 240 243 248 252 253 253
118 123 119 113 121 118 116 126 135 137 137 137 140 144 149 149 159 173 196 198 221 264 306 315 318 323 324 325 323 316 309 306 302 301 300 302 304 306 308 309 307 305 302 303 300 300 303 306 309 309 308 300 291 291 301 314 316 314 313 311 303 302 296 279 260 240 233 227 240 250 251 249 248 248 249 249 249 246 243 239 236 238 243 250 255
134 133 130 116 124 122 130 135 133 135 137 142 145 144 147 152 164 178 185 179 209 289 319 322 326 324 323 321 322 312 305 298 292 295 299 303 307 308 310 311 311 309 305 303 304 305 307 308 311 311 301 303 303 305 313 318 315 313 313 314 306 301 300 285 276 253 233 234 233 243 246 248 248 246 245 245 246 245 242 239 236 237 238 253 267
80 125 125 111 120 112 111 116 125 135 140 147 150 145 140 154 175 182 163 171 149 313 336 332 332 330 321 322 317 311 297 294 296 299 306 305 305 304 305 310 308 309 309 309 311 313 313 314 315 317 320 313 307 320 320 316 315 314 315 314 312 302 299 295 275 237 238 228 235 240 240 244 246 248 248 248 248 247 242 238 238 238 241 245 250
139 131 132 129 120 129 129 131 138 140 147 154 146 136 146 167 175 162 153 147 151 63 354 344 335 333 332 322 315 305 304 300 301 304 306 307 309 312 314 312 310 311 311 314 318 321 320 321 322 320 323 323 325 322 320 317 317 316 315 314 314 313 311 310 300 271 251 234 229 236 240 245 248 247 246 245 245 245 245 236 235 234 236 238 242
95 114 140 124 113 123 126 132 140 148 152 155 149 138 157 168 157 144 153 136 139 69 29 11 3 345 331 319 311 306 299 300 301 307 306 304 312 319 320 318 315 313 317 322 322 317 322 328 324 322 326 328 329 324 321 320 317 316 317 320 319 316 312 306 300 292 280 244 233 234 235 239 243 246 249 249 247 247 245 244 237 235 234 237 238
150 149 140 136 135 137 132 133 144 146 148 143 150 151 158 153 151 147 160 151 132 127 82 45 18 353 329 314 311 306 307 301 303 304 311 314 317 327 323 321 317 319 323 319 310 310 331 329 330 331 329 331 330 326 323 318 316 315 320 323 322 318 314 311 303 290 281 268 248 241 239 240 242 245 247 248 247 246 244 243 239 233 232 228 231
118 130 141 132 116 117 130 135 143 149 142 149 162 166 150 152 148 150 149 131 142 102 63 38 20 351 320 313 314 314 311 309 304 300 299 309 318 324 324 320 322 324 325 319 302 327 334 333 330 330 330 332 334 333 326 319 310 318 324 324 323 321 318 313 306 289 283 277 273 264 250 243 240 242 245 246 250 245 239 236 232 229 228 229 229
154 149 134 132 133 133 141 142 143 155 153 159 161 157 143 136 150 149 137 139 119 89 71 43 13 331 312 307 313 310 317 318 311 303 295 309 323 320 320 320 323 322 305 293 318 333 333 333 331 323 324 330 332 327 326 320 324 327 328 328 328 325 325 323 312 299 292 282 275 275 255 238 230 234 238 243 247 249 244 229 225 226 228 228 230
129 138 135 125 140 142 145 145 145 160 160 161 158 152 146 144 143 142 143 134 99 71 70 35 334 321 308 306 304 307 313 311 314 320 326 322 319 312 319 327 329 326 316 324 326 334 333 316 323 324 321 326 331 333 334 334 337 336 333 333 329 325 323 321 318 307 298 279 271 279 274 240 228 230 238 234 235 234 231 227 223 224 227 225 231
149 153 157 159 150 142 144 142 145 155 158 156 157 150 150 153 147 151 156 115 95 81 75 38 328 321 314 302 295 290 294 299 310 324 324 320 320 322 326 316 316 306 325 333 333 329 330 321 296 326 324 322 332 338 338 343 340 340 340 339 335 333 329 328 320 312 296 271 260 269 258 232 212 223 226 232 232 227 227 224 223 224 225 226 232
128 132 141 121 133 137 143 139 145 153 156 155 151 150 151 147 143 159 151 107 104 96 81 46 349 319 310 308 312 308 293 296 310 322 327 326 325 339 340 331 321 334 339 340 342 338 340 339 330 334 335 345 340 338 341 345 346 347 345 345 343 340 340 340 336 326 295 242 229 256 248 221 217 216 229 231 232 226 224 218 220 220 223 231 230
147 141 151 152 152 137 117 137 150 154 155 154 145 147 149 150 153 147 126 110 107 91 78 59 360 327 307 311 310 309 305 310 317 321 316 318 324 328 338 347 343 338 339 341 344 344 345 348 348 340 338 348 347 347 350 350 351 351 349 348 349 346 352 354 357 350 15 16 338 308 253 207 210 219 222 225 222 226 224 225 227 221 222 226 231